SL-8 DEB

Satellite information

Favourite Embed

Satellite Type and Status

DEBRISIN ORBIT

Key statistics

Satellite SL-8 DEB at a glance.

Uptime

12017

Days in orbit

Revolutions

≈ 14.4

Per day

Orbit

LEO

Low Earth Orbit

Inclination

74.0

Latest

Satellite identification and parameters

Extended collection of information and parameters for SL-8 DEB.

Object identification

Identified? True

Debris? True

Object name: SL-8 DEB

International designator: 1992-053D

Object number (NORAD): 25027

Object ID (CCSDS): 25027

Country: COMMONWEALTH OF INDEPENDENT STATES (CIS)

Current information (Y/N): Y

RCS size: SMALL

Orbital parameters

Period: 99.766 minutes

Inclination: 74.03 deg

SMA: 7125.507 km

Apoapsis: 750.117 km

Periapsis: 744.628 km

RAAN: 33.0354 deg

Eccentricy: 0.0003852

Argument of periapsis: 242.3716 deg

Mean anomaly: 190.0704 deg

Mean motion: 14.43374681 rev/day

Mean motion (dot): 0.00000754 rev/day2

B* drag term: 0.00023145 1/REarth

Two-line elements (TLE)

Creation date: July 6, 2025, 10:36 p.m.

Reference frame: TEME

Reference center: EARTH

Epoch: July 6, 2025, 4:41 p.m. UTC

TLE line 0: 0 SL-8 DEB

TLE line 1: 1 25027U 92053D 25187.69557215 .00000754 00000-0 23145-3 0 9992

TLE line 2: 2 25027 74.0300 33.0354 0003852 242.3716 190.0704 14.43374681479331

Live tracking on map

Real-time ground track for satellite SL-8 DEB.

In-orbit conjunctions

A list of the most updated potential collisions computed for object SL-8 DEB.

Target Orbit TCA Probability of collision Miss distance Type
CZ-6A DEB LEO 2024-12-30 10:41:25 0.000103839 512.0 (m) DEBRIS
CZ-6A DEB SSO 2024-06-22 19:29:00 0.0001625054 91.0 (m) DEBRIS
CZ-4 DEB SSO 2024-06-11 14:21:40 0.0001875446 390.0 (m) DEBRIS

Associated space launch

Military communications satellite

SL-8 DEB was lifted into orbit during the mission ‘Kosmos-3M | Strela-2M 50’, on board a Kosmos-3M space rocket.

The launch took place on Aug. 12, 1992, 5:44 a.m. from 132/1 (132L).

For more information about the launch, click the button.

Launch to space Kosmos-3M | Strela-2M 50
Kosmos-3M | Strela-2M 50

Agency: N/A

Status: Launch Successful

Launch date: Aug. 12, 1992, 5:44 a.m. UTC

Rocket: Kosmos-3M

Launch pad: 132/1 (132L)

Location: Plesetsk Cosmodrome, Russian Federation

...

Latest news about this satellite

There are no fresh news available about this satellite. Check back as we update our databases every day.


Newsletter sign-up

Weekly statistics, charts and insights to help you stay on top of the space industry.